Weather reports worldwide

Advertisment
Seehausen, Germany (10261): temperature & dewpoint: 20.06.2019 17:00:00 - 26.06.2019 17:00:00 (CEST)Seehausen, Germany (10261): temperature 5cm & temperature -5cm: 20.06.2019 17:00:00 - 26.06.2019 17:00:00 (CEST)Seehausen, Germany (10261): temperature -20cm & temperature -100cm: 20.06.2019 17:00:00 - 26.06.2019 17:00:00 (CEST)Seehausen, Germany (10261): wind speed & gusts: 20.06.2019 17:00:00 - 26.06.2019 17:00:00 (CEST)Seehausen, Germany (10261): wind direction: 20.06.2019 17:00:00 - 26.06.2019 17:00:00 (CEST)Seehausen, Germany (10261): reduced air pressure: 20.06.2019 17:00:00 - 26.06.2019 17:00:00 (CEST)Seehausen, Germany (10261): visibility: 20.06.2019 17:00:00 - 26.06.2019 17:00:00 (CEST)Seehausen, Germany (10261): sunshine duration: 20.06.2019 17:00:00 - 26.06.2019 17:00:00 (CEST)Seehausen, Germany (10261): precipitation: 20.06.2019 17:00:00 - 26.06.2019 17:00:00 (CEST)
Date & Time tt [°C] td [°C] tt 5cm [°C] tt -5cm [°C] tt -20cm [°C] tt -100cm [°C] ff [km/h] ff [kn] fx [km/h] fx [kn] dd ppp [hPa] vv [km] sd [min] rr [mm]
26.06.2019 17:00:00 33,8 17,2 37,2 36,6 29,1 19,8 22 12 46 25 NW 1019,6 30 60 0,0
26.06.2019 16:00:00 34,3 15,8 38,1 36,8 28,7 19,8 30 16 47 26 WNW 1019,6 18 60 0,0
26.06.2019 15:00:00 34,6 16,9 38,8 37,0 28,1 19,8 22 12 45 24 W 1019,3 19 58 0,0
26.06.2019 14:00:00 34,4 18,1 38,9 36,7 27,5 19,8 26 14 40 22 W 1019,4 31 56 0,0
26.06.2019 13:00:00 33,6 18,2 37,9 36,6 26,7 19,8 27 15 40 21 W 1019,6 30 58 0,0
26.06.2019 12:00:00 32,9 18,4 37,2 34,8 25,9 19,7 21 11 32 17 W 1019,5 21 60 0,0
26.06.2019 11:00:00 32,0 18,9 35,8 33,0 25,2 19,7 14 7 25 14 WSW 1019,3 33 60 0,0
26.06.2019 10:00:00 30,5 17,9 33,7 30,0 24,6 19,7 14 7 17 9 W 1019,1 24 60 0,0
26.06.2019 09:00:00 28,4 17,7 31,2 27,3 24,3 19,7 9 5 20 11 WSW 1019,0 30 60 0,0
26.06.2019 08:00:00 26,8 16,3 28,2 24,5 24,2 19,6 2 1 5 3 NE 1018,7 24 60 0,0
26.06.2019 07:00:00 22,0 14,6 22,8 22,4 24,4 19,6 3 2 5 3 SE 1018,6 21 60 0,0
26.06.2019 06:00:00 19,1 15,0 18,4 21,6 24,8 19,6 0 0 6 3 N 1018,7 20 7 0,0
26.06.2019 05:00:00 18,9 14,3 17,1 21,8 25,1 19,6 5 3 7 4 SE 1018,6 21 0 0,0
26.06.2019 04:00:00 18,4 15,7 17,0 22,3 25,6 19,5 3 2 6 3 SE 1018,7 20 0 0,0
26.06.2019 03:00:00 19,4 15,2 17,7 22,9 26,0 19,5 4 2 5 3 SE 1018,9 23 0 0,0
26.06.2019 02:00:00 19,8 16,5 18,0 23,6 26,5 19,5 3 1 6 3 ESE 1019,0 25 0 0,0
26.06.2019 01:00:00 21,5 14,7 18,6 24,4 27,0 19,5 5 3 8 4 SSE 1019,3 29 0 0,0
26.06.2019 00:00:00 22,4 15,4 19,3 25,5 27,5 19,5 6 3 8 4 SE 1019,4 31 0 0,0
25.06.2019 23:00:00 23,3 15,7 20,2 26,8 28,0 19,5 4 2 8 5 SE 1019,3 29 0 0,0
25.06.2019 22:00:00 26,5 15,1 23,0 28,5 28,5 19,4 6 4 9 5 ESE 1019,1 43 0 0,0
25.06.2019 21:00:00 29,9 14,4 27,1 30,6 28,7 19,4 7 4 13 7 SE 1018,8 55 33 0,0
25.06.2019 20:00:00 33,0 13,0 33,8 32,5 28,8 19,4 6 4 26 14 SE 1018,9 69 60 0,0
25.06.2019 19:00:00 33,5 11,8 35,2 34,3 28,7 19,4 13 7 28 15 SE 1018,8 70 60 0,0
25.06.2019 18:00:00 33,7 11,4 36,1 35,9 28,4 19,4 15 8 34 18 SSE 1019,1 45 60 0,0
25.06.2019 17:00:00 33,8 11,8 37,4 36,7 27,9 19,4 16 9 31 17 SE 1019,3 39 60 0,0
25.06.2019 16:00:00 33,6 13,0 38,4 37,2 27,3 19,4 18 10 33 18 SE 1019,8 31 60 0,0
25.06.2019 15:00:00 32,4 13,7 37,4 36,9 26,5 19,4 18 10 29 16 ESE 1020,2 28 60 0,0
25.06.2019 14:00:00 32,3 14,0 37,7 36,4 25,6 19,4 14 7 37 20 SE 1020,7 42 60 0,0
25.06.2019 13:00:00 31,9 13,8 37,1 35,1 24,7 19,4 17 9 31 17 SE 1021,1 44 60 0,0
25.06.2019 12:00:00 30,8 14,3 35,5 32,8 23,9 19,3 13 7 32 18 SSE 1021,4 38 60 0,0
25.06.2019 11:00:00 28,6 15,0 31,0 29,4 23,2 19,3 15 8 24 13 SE 1021,6 42 53 0,0
25.06.2019 10:00:00 27,6 15,2 31,5 27,9 22,6 19,3 16 9 27 14 SE 1021,4 28 60 0,0
25.06.2019 09:00:00 24,2 14,3 26,7 24,2 22,3 19,3 17 9 24 13 SE 1021,8 33 60 0,0
25.06.2019 08:00:00 21,2 12,9 22,7 21,5 22,3 19,3 16 9 25 14 ESE 1021,9 24 60 0,0
25.06.2019 07:00:00 18,9 11,9 19,9 19,4 22,5 19,2 9 5 16 9 SE 1022,2 55 60 0,0
25.06.2019 06:00:00 16,8 11,7 15,3 18,6 22,9 19,2 7 4 10 5 SE 1021,9 58 16 0,0
25.06.2019 05:00:00 15,5 11,3 13,1 18,9 23,3 19,2 6 3 9 5 SE 1021,8 64 0 0,0
25.06.2019 04:00:00 15,2 11,3 13,0 19,5 23,8 19,2 6 3 8 5 SE 1022,2 65 0 0,0
25.06.2019 03:00:00 16,5 11,1 13,8 20,1 24,2 19,2 6 4 11 6 SE 1022,5 64 0 0,0
25.06.2019 02:00:00 19,0 10,9 17,2 20,9 24,7 19,2 10 6 17 9 E 1022,7 70 0 0,0
25.06.2019 01:00:00 19,6 10,5 16,7 21,7 25,3 19,1 6 4 16 9 E 1023,0 70 0 0,0
25.06.2019 00:00:00 20,7 9,9 18,9 22,6 25,8 19,1 10 5 19 10 E 1022,8 70 0 0,0
24.06.2019 23:00:00 21,4 8,9 18,3 23,8 26,4 19,1 9 5 13 7 E 1022,7 70 0 0,0
24.06.2019 22:00:00 23,5 8,1 19,4 25,5 26,9 19,1 8 4 14 8 E 1022,5 70 0 0,0
24.06.2019 21:00:00 25,6 8,0 23,6 27,7 27,2 19,1 7 4 20 11 E 1022,2 70 58 0,0
24.06.2019 20:00:00 27,7 6,2 28,1 30,0 27,4 19,1 15 8 27 14 E 1022,3 70 60 0,0
24.06.2019 19:00:00 28,4 8,5 30,1 32,0 27,3 19,1 14 8 26 14 E 1022,4 70 60 0,0
24.06.2019 18:00:00 28,5 7,9 31,0 33,6 27,1 19,1 18 10 27 14 ESE 1022,5 56 60 0,0
24.06.2019 17:00:00 29,3 10,1 33,9 34,3 26,7 19,1 15 8 30 16 E 1022,7 49 60 0,0
24.06.2019 16:00:00 29,1 10,7 33,4 35,2 26,1 19,1 17 9 28 15 ESE 1023,1 50 60 0,0
24.06.2019 15:00:00 28,3 9,6 34,1 34,8 25,4 19,1 14 8 28 15 E 1023,1 48 58 0,0
24.06.2019 14:00:00 28,1 10,0 33,3 34,9 24,5 19,1 12 7 25 13 E 1023,2 46 60 0,0
24.06.2019 13:00:00 27,3 11,5 33,6 33,5 23,6 19,1 10 5 21 11 E 1023,9 38 59 0,0
24.06.2019 12:00:00 25,4 11,6 30,6 31,7 22,7 19,1 8 5 21 12 E 1024,3 41 60 0,0
24.06.2019 11:00:00 24,2 12,9 27,7 29,7 21,8 19,0 9 5 16 9 E 1024,3 37 60 0,0
24.06.2019 10:00:00 22,2 12,8 25,5 25,8 21,2 19,0 9 5 16 9 ESE 1024,5 49 60 0,0
24.06.2019 09:00:00 20,7 13,1 23,2 21,9 20,9 19,0 9 5 15 8 E 1024,7 63 60 0,0
24.06.2019 08:00:00 18,3 12,4 20,1 19,5 20,9 19,0 8 4 14 8 ENE 1025,1 40 60 0,0
24.06.2019 07:00:00 15,8 11,8 15,9 17,4 21,2 19,0 8 5 13 7 ENE 1024,8 42 60 0,0
24.06.2019 06:00:00 13,9 11,4 13,2 16,6 21,6 18,9 0 0 4 2 N 1024,5 25 36 0,0
24.06.2019 05:00:00 12,9 11,4 11,6 16,8 22,1 18,9 2 1 4 2 NNE 1024,2 33 0 0,0
24.06.2019 04:00:00 13,9 11,5 12,2 17,4 22,7 18,9 3 2 9 5 NNE 1024,4 56 0 0,0
24.06.2019 03:00:00 14,3 11,3 13,0 18,2 23,3 18,9 8 4 10 5 NE 1024,7 63 0 0,0
24.06.2019 02:00:00 15,8 11,5 14,1 19,0 23,9 18,9 7 4 11 6 ENE 1024,4 70 0 0,0
24.06.2019 01:00:00 16,3 11,5 14,9 20,0 24,6 18,9 9 5 12 7 ENE 1024,0 67 0 0,0
24.06.2019 00:00:00 17,5 11,7 15,8 21,3 25,3 18,9 7 4 11 6 ENE 1023,4 67 0 0,0
23.06.2019 23:00:00 18,9 12,0 17,3 22,7 26,0 18,9 8 5 16 9 ENE 1023,2 68 0 0,0
23.06.2019 22:00:00 20,8 11,5 19,4 24,6 26,6 18,9 11 6 18 10 ENE 1022,7 70 20 0,0
23.06.2019 21:00:00 23,2 11,2 23,0 27,1 27,0 18,9 13 7 23 12 NE 1022,2 70 60 0,0
23.06.2019 20:00:00 25,3 10,9 26,4 29,8 27,2 18,9 14 7 27 15 NE 1021,9 70 60 0,0
23.06.2019 19:00:00 26,2 10,7 27,9 32,2 27,1 18,9 18 10 29 16 NE 1021,5 41 60 0,0
23.06.2019 18:00:00 26,8 9,9 29,3 34,1 26,8 18,9 16 8 27 15 E 1021,8 47 60 0,0
23.06.2019 17:00:00 26,6 9,1 29,8 34,5 26,2 18,9 13 7 27 15 E 1022,0 70 52 0,0
23.06.2019 16:00:00 26,4 8,4 31,2 35,3 25,3 18,9 13 7 30 16 ENE 1022,4 70 49 0,0
23.06.2019 15:00:00 26,6 11,0 32,1 36,0 24,2 18,9 10 5 31 17 NE 1022,5 45 59 0,0
23.06.2019 14:00:00 25,9 11,4 30,7 33,9 23,1 19,0 14 8 22 12 ENE 1022,7 57 50 0,0
23.06.2019 13:00:00 25,1 10,7 30,8 33,0 21,9 19,0 12 6 25 13 ENE 1022,9 54 60 0,0
23.06.2019 12:00:00 24,1 11,0 27,8 30,0 20,9 19,0 11 6 22 12 E 1023,1 33 60 0,0
23.06.2019 11:00:00 22,9 10,3 25,5 25,9 20,1 19,0 13 7 23 12 ENE 1023,2 50 53 0,0
23.06.2019 10:00:00 21,2 8,7 23,5 23,0 19,6 19,0 15 8 25 14 E 1023,2 60 60 0,0
23.06.2019 09:00:00 19,3 6,3 21,4 20,0 19,4 19,0 16 9 24 13 ENE 1023,4 56 60 0,0
23.06.2019 08:00:00 17,5 6,2 18,7 17,9 19,4 19,0 12 6 21 12 ENE 1023,3 70 50 0,0
23.06.2019 07:00:00 15,5 7,3 16,5 16,1 19,6 18,9 9 5 13 7 ENE 1023,2 70 60 0,0
23.06.2019 06:00:00 13,7 9,7 12,8 15,5 19,9 18,9 8 4 14 8 ENE 1023,0 70 3 0,0
23.06.2019 05:00:00 13,4 10,4 12,2 15,7 20,3 18,9 7 4 12 6 NE 1023,2 68 0 0,0
23.06.2019 04:00:00 14,1 10,5 12,9 16,1 20,7 18,9 8 4 15 8 ENE 1022,9 70 0 0,0
23.06.2019 03:00:00 14,9 10,7 14,2 16,8 21,1 19,0 10 6 19 10 ENE 1022,8 70 0 0,0
23.06.2019 02:00:00 15,4 11,0 14,9 17,1 21,6 19,0 12 7 20 11 ENE 1022,8 70 0 0,0
23.06.2019 01:00:00 16,1 11,4 15,3 17,7 22,2 19,0 14 7 23 13 ENE 1022,7 70 0 0,0
23.06.2019 00:00:00 17,0 12,0 15,9 18,6 22,8 19,0 13 7 23 12 ENE 1022,3 70 0 0,0
22.06.2019 23:00:00 17,8 12,0 16,6 19,6 23,4 19,0 14 7 22 12 NE 1021,9 70 0 0,0
22.06.2019 22:00:00 19,0 11,3 17,6 21,2 23,9 19,0 14 8 27 14 NE 1021,5 70 14 0,0
22.06.2019 21:00:00 21,0 11,2 20,6 23,3 24,3 19,0 14 8 26 14 NE 1021,0 70 58 0,0
22.06.2019 20:00:00 22,7 10,8 23,4 25,7 24,5 19,0 17 9 24 13 NE 1021,0 70 60 0,0
22.06.2019 19:00:00 23,6 10,8 25,0 27,7 24,4 19,1 18 10 28 15 ENE 1021,0 61 60 0,0
22.06.2019 18:00:00 23,7 10,1 26,9 29,4 24,1 19,1 19 10 29 15 NE 1021,3 46 60 0,0
22.06.2019 17:00:00 24,2 10,9 27,4 29,9 23,7 19,1 16 9 28 15 ENE 1021,7 52 51 0,0
22.06.2019 16:00:00 23,5 10,1 27,7 30,3 23,1 19,1 16 8 26 14 NE 1022,0 43 47 0,0
22.06.2019 15:00:00 23,7 10,0 28,5 29,5 22,5 19,1 7 4 27 14 E 1022,4 70 48 0,0
22.06.2019 14:00:00 23,1 9,8 27,3 28,9 21,8 19,1 11 6 29 16 ENE 1022,9 70 47 0,0
22.06.2019 13:00:00 22,3 10,2 27,3 28,7 20,9 19,2 8 5 22 12 NE 1023,5 42 60 0,0
22.06.2019 12:00:00 21,4 8,0 24,7 27,0 20,1 19,2 11 6 23 13 ENE 1023,6 49 60 0,0
22.06.2019 11:00:00 20,9 9,5 24,2 24,9 19,4 19,2 13 7 27 14 NNE 1023,9 40 60 0,0
22.06.2019 10:00:00 19,2 10,5 22,4 22,4 18,8 19,2 12 6 21 11 ENE 1024,1 51 60 0,0
22.06.2019 09:00:00 17,8 10,9 20,3 19,4 18,5 19,2 16 9 23 13 NNE 1024,0 31 60 0,0
22.06.2019 08:00:00 16,0 10,6 18,7 17,1 18,4 19,2 13 7 20 11 NNE 1023,7 40 60 0,0
22.06.2019 07:00:00 14,1 10,1 15,4 14,8 18,5 19,2 7 4 9 5 NNW 1023,4 48 60 0,0
22.06.2019 06:00:00 11,5 9,2 11,0 13,8 18,9 19,2 5 3 7 4 NW 1023,3 48 14 0,0
22.06.2019 05:00:00 11,5 9,2 10,6 14,1 19,3 19,2 5 3 7 4 WNW 1023,1 53 0 0,0
22.06.2019 04:00:00 11,6 9,4 10,4 14,5 19,7 19,2 4 2 6 4 W 1022,9 60 0 0,0
22.06.2019 03:00:00 13,1 10,2 11,5 15,1 20,1 19,2 5 3 14 8 NW 1022,5 59 0 0,0
22.06.2019 02:00:00 13,9 9,8 12,8 15,7 20,5 19,2 6 3 12 6 WNW 1022,2 70 0 0,0
22.06.2019 01:00:00 15,0 10,2 14,3 16,4 21,0 19,2 6 4 11 6 NW 1022,0 70 0 0,0
22.06.2019 00:00:00 15,1 10,9 13,8 16,6 21,5 19,2 8 5 19 10 NW 1021,4 70 0 0,0
21.06.2019 23:00:00 16,4 10,8 15,2 17,4 22,0 19,2 14 7 33 18 NNW 1020,8 70 0 0,0
21.06.2019 22:00:00 18,5 12,2 17,1 19,0 22,5 19,2 9 5 15 8 NW 1019,5 59 13 0,0
21.06.2019 21:00:00 21,3 9,9 20,4 20,1 22,9 19,2 10 5 22 12 WNW 1018,5 70 60 0,0
21.06.2019 20:00:00 23,0 8,0 23,0 21,5 23,2 19,2 9 5 22 12 W 1017,9 70 49 0,0
21.06.2019 19:00:00 22,2 7,7 21,8 22,3 23,4 19,3 16 9 29 16 W 1017,7 70 33 0,0
21.06.2019 18:00:00 22,9 8,1 23,4 24,2 23,4 19,3 19 10 34 18 WSW 1017,5 70 31 0,0
21.06.2019 17:00:00 22,9 9,5 25,5 26,3 23,2 19,3 17 9 30 16 WNW 1017,6 45 52 0,0
21.06.2019 16:00:00 22,5 11,4 24,1 26,2 23,0 19,3 16 9 25 14 W 1017,7 66 40 0,0
21.06.2019 15:00:00 20,9 11,9 22,5 23,3 23,0 19,3 13 7 24 13 W 1018,1 70 2 0,0
21.06.2019 14:00:00 21,1 11,6 22,6 25,0 22,8 19,3 14 8 23 13 NW 1017,9 57 21 0,0
21.06.2019 13:00:00 21,3 10,0 26,7 27,7 22,2 19,3 11 6 25 14 W 1017,8 47 52 0,0
21.06.2019 12:00:00 20,6 13,0 24,9 25,3 21,6 19,3 11 6 21 11 WNW 1017,9 45 51 0,0
21.06.2019 11:00:00 18,9 12,7 22,1 23,8 21,2 19,3 14 7 24 13 WNW 1017,8 36 42 0,0
21.06.2019 10:00:00 18,1 12,6 20,9 21,3 21,0 19,2 11 6 20 11 WNW 1017,5 26 25 0,0
21.06.2019 09:00:00 16,8 13,8 17,7 20,1 21,0 19,2 11 6 20 11 WNW 1017,1 12 15 0,0
21.06.2019 08:00:00 16,3 14,7 16,9 19,2 21,1 19,2 10 5 20 11 WNW 1016,6 7 0 0,0
21.06.2019 07:00:00 16,1 15,1 16,2 18,4 21,3 19,2 12 7 20 11 WNW 1015,8 6 0 0,0
21.06.2019 06:00:00 15,8 14,9 15,8 18,2 21,6 19,2 11 6 19 11 W 1015,3 7 0 0,0
21.06.2019 05:00:00 16,0 15,2 16,0 18,4 21,9 19,2 8 4 13 7 WNW 1014,8 9 0 0,0
21.06.2019 04:00:00 16,3 15,5 16,1 18,8 22,3 19,2 6 3 17 9 WNW 1014,5 9 0 0,0
21.06.2019 03:00:00 16,3 15,8 16,5 18,8 22,7 19,2 12 7 17 9 W 1014,4 6 0 0,0
21.06.2019 02:00:00 16,5 15,8 16,5 19,4 23,2 19,2 6 3 10 6 SSE 1013,5 8 0 2,0
21.06.2019 01:00:00 16,9 16,6 17,0 19,3 24,0 19,2 10 5 18 10 SW 1014,0 2,6 0 15,6
21.06.2019 00:00:00 17,0 16,1 17,2 20,6 24,8 19,1 14 7 30 16 N 1013,0 2,8 0 11,1
20.06.2019 23:00:00 18,6 16,0 18,0 23,8 25,2 19,1 14 8 18 10 WNW 1012,3 3,0 0 0,5
20.06.2019 22:00:00 21,5 14,3 20,9 24,7 25,5 19,1 5 3 8 4 NNE 1012,0 46 0 0,0
20.06.2019 21:00:00 23,0 13,9 22,5 26,0 25,8 19,1 6 3 18 10 NNW 1011,4 58 30 0,0
20.06.2019 20:00:00 23,8 13,1 23,8 27,8 25,8 19,1 9 5 26 14 NNW 1010,9 59 47 0,0
20.06.2019 19:00:00 24,6 12,6 26,5 29,3 25,6 19,1 14 8 27 15 NW 1010,7 55 50 0,0
20.06.2019 18:00:00 25,0 12,9 28,0 29,3 25,4 19,1 18 10 29 16 W 1010,7 48 28 0,0
20.06.2019 17:00:00 24,6 12,8 26,7 29,2 25,1 19,1 19 10 29 16 W 1010,5 49 20 0,0

tt = temperature
td = dewpoint
tt 5cm = temperature 5cm
tt -5cm = temperature -5cm
tt -20cm = temperature -20cm
tt -100cm = temperature -100cm
ff = wind speed
fx = gusts
dd = wind direction
ppp = reduced air pressure
vv = visibility
sd = sunshine duration
rr = precipitation

Next stations